Wind_Speed
5 4 4 3 3 3 3 4 4 5 4 4 4 5 5 5 5 4 4 4 3 4 3 4 4 4 5 5 6 6 6 5 5 6 6 6 6 7 7 7 7 8 8
4 4 4 4 3 4 4 4 4 4 4 4 5 5 5 5 5 5 5 4 4 4 4 4 4 4 5 5 5 5 5 5 6 6 6 6 6 7 7 7 7 7 7
5 5 4 4 5 5 5 5 5 5 5 5 5 5 5 5 6 6 5 4 4 4 4 4 4 5 5 5 5 5 5 5 5 6 6 6 6 6 6 6 6 7 7
5 5 5 5 5 6 5 6 6 6 6 6 5 6 6 6 6 6 5 5 5 5 4 5 5 5 5 5 5 6 6 6 6 6 6 6 6 6 7 7 7 7 7
5 5 6 6 6 6 6 6 6 6 7 7 7 7 7 7 7 7 6 6 6 5 5 5 6 6 6 6 6 6 6 6 6 6 6 5 6 6 7 7 7 8 8
6 6 6 6 6 6 6 7 7 7 7 8 7 7 7 7 8 7 7 7 7 7 7 6 6 6 6 6 6 6 6 6 6 6 6 6 6 6 6 7 7 8 8
7 7 7 6 6 6 7 7 7 7 7 8 8 7 7 7 7 7 7 7 7 8 8 7 7 7 7 7 7 6 6 6 6 7 7 7 7 7 6 6 7 8 8
7 7 7 6 7 7 7 7 7 7 7 8 7 7 7 7 7 7 7 8 8 8 9 8 8 8 8 8 7 7 7 7 7 7 8 8 7 7 7 7 7 8 8
7 7 7 7 7 7 7 7 7 8 8 8 8 8 8 8 8 8 8 8 8 9 9 9 9 8 8 8 8 7 7 7 7 8 9 9 8 8 8 9 8 8 9
8 7 7 7 7 7 8 8 8 9 9 9 9 9 9 9 9 9 9 9 9 10 9 9 9 9 9 8 8 8 8 8 8 9 9 9 9 10 10 10 10 10 10
9 8 8 8 9 8 8 8 9 9 10 9 9 9 9 10 10 10 9 9 9 9 9 10 10 10 10 10 10 10 10 10 10 10 10 10 10 11 11 11 10 10 10
10 10 10 10 10 10 9 9 10 10 11 11 10 10 11 11 11 11 10 10 10 9 9 10 10 10 10 11 11 11 11 11 11 11 11 11 11 11 11 12 12 11 12
11 11 11 11 11 11 11 11 11 11 12 12 12 12 12 12 12 12 11 11 11 10 10 10 11 11 11 11 12 12 12 12 12 12 12 12 13 12 12 13 13 13 13
12 12 12 12 12 12 12 12 12 12 12 13 13 13 13 13 13 12 12 11 11 11 11 11 12 12 12 12 13 13 13 13 13 13 13 13 14 14 14 14 14 14 14
13 13 13 13 14 13 13 14 14 14 14 14 14 13 13 13 13 13 12 12 12 12 12 13 13 13 13 14 14 14 14 14 14 14 14 14 15 15 16 16 16 17 16
15 15 15 14 15 15 14 15 15 15 15 14 14 14 13 13 13 13 13 13 13 13 13 14 15 15 16 16 15 15 16 15 15 15 15 16 17 17 18 18 18 18 18
15 15 15 15 15 16 16 16 16 15 15 15 14 14 14 14 13 13 13 13 13 14 14 15 15 16 16 16 16 16 17 16 16 16 17 17 18 19 19 19 19 19 19
16 16 15 15 16 16 17 17 17 16 15 15 15 14 14 14 14 13 13 14 14 14 15 15 16 16 17 17 17 17 17 17 17 18 18 19 19 20 20 20 20 21 21
17 17 17 17 17 18 18 18 18 17 16 16 15 15 15 15 15 15 15 15 15 16 16 16 16 16 17 18 19 19 19 19 19 19 20 20 20 20 20 21 21 21 22
18 18 19 19 19 19 19 19 19 19 18 17 16 16 16 16 17 17 17 17 18 18 18 17 18 18 18 19 20 20 20 21 21 21 21 21 21 21 22 22 23 22 22
20 20 20 20 20 20 20 20 20 20 19 18 17 17 17 18 18 19 19 20 19 19 19 19 20 20 20 21 21 21 21 21 22 22 22 21 22 22 23 23 24 24 24
22 22 21 21 21 21 21 21 21 21 20 19 19 19 19 20 20 20 20 20 20 20 21 21 21 22 22 22 22 22 22 23 24 23 23 22 23 23 24 24 25 25 25
23 23 23 22 22 22 22 22 22 21 21 21 21 21 21 22 21 21 22 22 21 21 22 23 23 23 23 23 22 22 23 23 24 24 24 24 25 24 24 25 26 26 26
25 24 24 23 22 22 23 22 23 22 22 22 22 23 23 22 22 23 23 23 23 23 24 24 25 25 25 25 25 25 25 25 25 25 26 26 26 26 26 26 27 27 27
26 25 25 25 24 23 23 23 23 24 23 24 24 24 24 23 24 24 24 24 24 25 26 26 26 26 26 27 26 27 27 27 27 27 27 27 28 28 28 28 28 28 28
26 25 25 25 24 24 24 24 24 25 25 25 25 25 25 25 26 26 26 26 26 26 27 27 28 28 28 28 28 28 28 29 29 29 29 29 29 29 29 29 29 29 29
Wind_Direction
340 344 346 346 343 341 344 342 343 340 336 332 330 323 307 299 297 294 291 290 289 282 277 278 283 286 291 287 282 283 282 284 288 290 289 288 284 283 283 279 273 272 276
338 340 346 354 343 338 332 328 335 336 335 332 329 323 318 310 302 292 284 285 285 284 281 273 277 282 288 289 290 293 288 290 291 293 292 286 283 280 278 278 276 276 281
330 326 327 330 334 328 323 318 320 326 329 331 329 322 312 308 304 297 294 292 283 279 279 271 274 283 286 288 290 296 293 295 295 295 295 289 283 280 278 280 280 278 277
321 319 318 315 317 321 319 314 315 317 318 319 318 318 316 311 307 299 295 290 281 274 274 273 274 281 284 285 286 293 299 298 298 302 295 291 288 284 284 284 279 276 273
316 316 316 312 310 313 315 312 314 316 315 312 312 313 314 313 308 298 291 286 281 272 269 272 274 279 281 281 287 295 301 303 296 295 292 294 292 289 285 283 278 277 274
309 310 312 312 311 314 314 313 315 314 312 311 311 311 312 312 310 303 296 286 276 271 270 271 275 276 280 286 290 291 296 295 293 295 292 291 292 290 290 286 285 286 282
307 314 313 311 312 313 312 313 315 316 311 307 308 308 308 311 312 304 295 287 275 270 267 267 272 274 279 287 291 292 296 290 289 289 292 291 289 285 282 283 287 289 288
306 308 312 311 312 311 309 308 312 317 316 313 310 308 305 305 306 303 294 284 273 270 267 265 268 272 278 285 291 293 297 294 288 286 287 284 282 280 284 287 289 288 285
306 305 308 308 308 307 303 305 308 310 313 313 310 306 305 304 303 304 301 292 280 275 269 265 265 269 272 280 288 294 293 295 295 290 289 284 277 277 276 280 281 284 283
308 308 308 310 310 306 301 303 308 310 311 311 309 304 303 302 303 303 305 300 290 280 272 267 265 265 267 274 282 287 286 289 295 291 290 286 281 275 276 277 278 282 283
303 304 304 308 309 306 302 303 305 306 307 307 307 305 303 302 301 298 298 299 296 286 278 272 267 267 267 273 277 282 283 284 289 288 288 290 289 281 279 278 280 283 283
298 296 297 299 301 301 300 302 305 304 303 303 302 301 300 298 299 297 296 295 293 288 281 275 272 272 271 273 275 278 280 284 286 286 285 288 288 286 285 282 283 283 284
294 294 294 295 296 297 297 299 302 302 300 298 297 295 294 294 293 293 292 290 286 284 279 276 275 274 275 273 273 275 277 282 281 280 279 282 283 283 286 286 286 285 285
291 290 291 292 294 294 296 298 301 301 298 298 296 293 292 290 287 285 285 284 282 281 277 276 275 273 274 273 273 275 277 278 277 277 277 279 280 279 281 284 285 285 285
283 285 287 290 289 290 294 296 298 297 295 295 298 296 291 289 287 283 281 280 280 281 280 277 273 273 273 273 274 276 279 280 279 277 276 278 280 280 280 282 284 283 283
283 284 284 286 289 290 292 295 294 293 292 293 294 295 291 288 286 285 283 280 280 281 281 278 273 272 273 273 276 279 280 280 279 279 278 278 278 280 281 283 283 282 282
281 282 282 284 286 286 287 290 294 291 290 291 291 292 290 288 288 287 286 281 279 280 280 278 276 274 275 276 277 277 277 279 280 280 279 278 278 280 282 283 282 281 281
281 281 281 283 286 286 287 288 288 292 289 288 288 289 289 290 290 285 282 281 281 282 282 279 277 276 276 277 278 278 277 279 281 282 280 279 280 281 282 282 281 282 282
281 282 282 282 285 288 288 287 287 288 289 289 288 288 288 288 288 286 282 281 281 282 282 280 278 276 277 277 278 277 278 279 280 280 281 280 281 281 282 284 284 284 284
281 281 282 283 284 287 287 286 285 285 287 286 285 284 284 285 286 286 284 281 279 279 279 278 278 277 279 279 278 276 277 278 279 281 281 280 280 281 283 285 285 286 286
279 280 281 283 284 284 285 285 285 284 284 283 282 283 283 284 286 286 284 281 279 279 277 277 278 277 279 280 279 277 276 277 279 279 279 278 279 281 284 285 289 288 287
278 279 279 281 282 284 285 286 285 285 283 282 283 284 285 286 287 285 284 281 279 278 277 278 278 278 279 279 279 279 278 277 278 278 279 279 278 280 283 287 288 289 287
278 279 278 278 281 284 286 284 283 282 283 281 282 284 286 286 285 284 284 282 280 279 278 279 278 278 278 278 279 279 280 280 278 278 279 279 280 281 283 286 287 287 288
278 277 277 278 280 282 283 282 282 282 282 282 283 284 285 286 284 283 284 283 281 280 279 279 278 277 277 278 279 279 280 280 279 279 279 279 280 282 284 285 285 286 287
275 276 277 277 278 280 281 281 282 283 282 282 282 283 285 285 284 283 283 283 283 281 280 279 278 277 277 278 280 280 280 280 280 279 279 280 280 282 283 284 285 285 286
275 274 276 277 278 279 279 280 281 282 283 282 281 282 284 284 284 282 282 282 283 282 281 279 279 279 279 279 279 280 280 280 281 281 281 281 281 282 282 283 284 284 285
Height
5863 5862 5861 5860 5860 5859 5858 5858 5857 5857 5856 5856 5855 5854 5854 5854 5853 5853 5852 5852 5852 5852 5852 5852 5851 5851 5851 5851 5851 5850 5850 5850 5849 5849 5848 5848 5847 5847 5847 5846 5846 5846 5846
5862 5862 5861 5860 5859 5859 5858 5857 5857 5856 5856 5855 5854 5854 5853 5853 5852 5852 5852 5851 5851 5851 5851 5851 5850 5850 5850 5850 5849 5849 5849 5848 5848 5847 5847 5847 5847 5846 5845 5845 5845 5844 5844
5862 5861 5860 5860 5859 5858 5857 5856 5856 5855 5855 5854 5853 5853 5852 5852 5851 5851 5850 5850 5850 5850 5850 5850 5849 5849 5849 5848 5848 5848 5847 5847 5846 5846 5846 5845 5844 5844 5844 5843 5843 5843 5843
5861 5860 5860 5859 5858 5857 5856 5855 5855 5854 5854 5853 5852 5852 5851 5851 5850 5850 5849 5849 5849 5849 5849 5849 5848 5848 5848 5847 5847 5847 5846 5845 5845 5844 5844 5844 5843 5843 5842 5842 5841 5841 5841
5860 5860 5859 5858 5857 5856 5855 5854 5854 5853 5852 5852 5851 5850 5850 5849 5848 5848 5848 5847 5847 5847 5847 5847 5847 5847 5846 5846 5846 5845 5845 5844 5843 5843 5842 5842 5841 5841 5841 5840 5839 5839 5839
5859 5858 5857 5856 5855 5855 5854 5853 5853 5852 5851 5850 5849 5849 5848 5847 5847 5846 5846 5845 5845 5845 5845 5846 5845 5845 5845 5845 5844 5844 5843 5842 5842 5841 5841 5840 5840 5839 5839 5838 5838 5837 5837
5858 5857 5856 5855 5854 5853 5853 5852 5851 5850 5849 5848 5847 5847 5846 5846 5845 5844 5844 5844 5843 5843 5843 5844 5844 5844 5843 5843 5843 5842 5842 5841 5840 5840 5839 5839 5838 5838 5837 5837 5836 5836 5835
5857 5856 5855 5854 5853 5852 5851 5850 5849 5849 5848 5847 5846 5845 5844 5844 5843 5842 5842 5841 5841 5841 5841 5842 5842 5842 5842 5841 5841 5840 5840 5839 5839 5838 5838 5837 5836 5836 5835 5835 5835 5834 5834
5855 5854 5853 5852 5851 5850 5849 5849 5848 5847 5846 5845 5844 5843 5842 5841 5841 5840 5839 5839 5839 5839 5839 5839 5839 5839 5839 5839 5839 5838 5838 5837 5837 5836 5835 5835 5834 5834 5833 5833 5833 5833 5832
5853 5852 5851 5850 5849 5848 5847 5847 5846 5845 5844 5843 5842 5841 5840 5839 5838 5838 5837 5836 5836 5836 5836 5836 5837 5837 5837 5837 5837 5836 5836 5835 5834 5834 5833 5832 5832 5831 5831 5830 5830 5830 5829
5851 5851 5850 5848 5847 5846 5845 5845 5844 5843 5842 5840 5839 5838 5837 5836 5836 5835 5834 5834 5833 5833 5833 5834 5834 5834 5834 5834 5834 5834 5833 5833 5832 5831 5831 5830 5829 5829 5828 5828 5827 5827 5826
5849 5848 5847 5846 5845 5844 5843 5842 5841 5840 5839 5838 5837 5836 5835 5834 5833 5832 5831 5831 5831 5830 5830 5831 5831 5831 5831 5831 5831 5831 5831 5830 5829 5829 5828 5828 5827 5826 5826 5825 5824 5824 5823
5846 5845 5844 5843 5842 5841 5840 5839 5838 5837 5836 5835 5834 5833 5832 5830 5830 5829 5828 5828 5828 5827 5828 5828 5828 5828 5828 5828 5828 5827 5827 5827 5826 5826 5825 5824 5824 5823 5823 5822 5821 5820 5820
5843 5842 5841 5840 5839 5838 5837 5836 5835 5834 5833 5831 5830 5829 5828 5827 5826 5825 5825 5824 5824 5824 5824 5824 5824 5824 5824 5824 5824 5824 5823 5823 5822 5822 5821 5821 5820 5820 5819 5819 5818 5817 5816
5839 5838 5837 5836 5836 5835 5834 5833 5832 5830 5829 5828 5826 5825 5824 5823 5822 5821 5821 5821 5821 5821 5821 5821 5821 5820 5820 5820 5820 5820 5819 5819 5818 5817 5817 5816 5816 5815 5815 5814 5813 5812 5812
5835 5834 5833 5833 5832 5831 5830 5829 5828 5826 5825 5824 5822 5821 5820 5819 5818 5817 5817 5817 5817 5817 5817 5816 5816 5816 5816 5816 5815 5815 5815 5814 5814 5813 5813 5812 5812 5811 5810 5809 5809 5808 5807
5831 5830 5829 5828 5827 5826 5825 5824 5823 5822 5821 5820 5819 5817 5816 5815 5814 5814 5813 5813 5813 5813 5812 5812 5811 5811 5811 5811 5811 5810 5810 5810 5809 5808 5808 5807 5807 5806 5805 5804 5803 5802 5801
5826 5825 5825 5824 5823 5822 5820 5819 5818 5817 5816 5815 5815 5813 5812 5811 5810 5809 5809 5809 5808 5808 5807 5807 5806 5806 5806 5806 5806 5805 5805 5805 5804 5803 5803 5802 5801 5800 5799 5798 5797 5796 5795
5821 5820 5819 5819 5818 5816 5815 5814 5813 5812 5811 5811 5810 5809 5808 5807 5806 5805 5804 5804 5803 5803 5802 5802 5801 5801 5801 5800 5800 5800 5799 5799 5798 5798 5797 5796 5795 5794 5793 5792 5791 5790 5789
5816 5815 5814 5813 5812 5811 5810 5809 5808 5807 5806 5805 5805 5804 5803 5802 5801 5800 5799 5798 5798 5797 5797 5796 5796 5795 5795 5794 5794 5794 5793 5793 5793 5792 5791 5789 5789 5788 5787 5786 5784 5783 5782
5810 5809 5808 5807 5806 5805 5804 5803 5802 5801 5800 5800 5799 5798 5797 5796 5795 5794 5793 5792 5791 5791 5790 5790 5790 5789 5789 5788 5787 5787 5787 5786 5785 5785 5784 5783 5782 5781 5780 5779 5777 5776 5775
5803 5802 5802 5801 5800 5799 5798 5797 5796 5795 5794 5794 5793 5793 5791 5790 5789 5788 5786 5785 5784 5784 5784 5783 5783 5783 5782 5781 5781 5780 5779 5779 5778 5778 5777 5776 5775 5774 5773 5772 5770 5769 5767
5797 5795 5795 5794 5793 5792 5791 5790 5790 5789 5788 5788 5787 5786 5785 5784 5782 5781 5780 5778 5777 5777 5776 5776 5776 5775 5775 5774 5774 5773 5772 5771 5771 5770 5769 5768 5767 5766 5765 5764 5763 5761 5760
5789 5788 5787 5787 5787 5786 5785 5784 5783 5782 5782 5781 5780 5779 5778 5777 5775 5774 5773 5772 5771 5770 5769 5768 5768 5768 5767 5766 5766 5765 5764 5764 5763 5762 5761 5760 5760 5759 5758 5756 5755 5753 5752
5781 5781 5780 5780 5780 5779 5779 5778 5777 5776 5775 5774 5774 5772 5771 5770 5769 5767 5766 5765 5764 5762 5762 5761 5760 5760 5759 5759 5758 5757 5756 5755 5755 5754 5753 5752 5751 5750 5749 5748 5747 5745 5744
5773 5773 5772 5772 5772 5772 5772 5771 5770 5769 5768 5767 5766 5765 5764 5762 5761 5760 5758 5757 5756 5755 5754 5753 5752 5751 5751 5750 5749 5748 5747 5746 5745 5745 5744 5743 5742 5741 5740 5739 5738 5736 5735